GW4022 Weather Reports


time (UTC)temp
F
wind
direction
speed
knots
gust
knots
rain 1hr
in
rain 24hr
in
rain mn
in
humidity
%
barometer
mb
20260507064557 56 0.0 0.0 0.00 0.00 0.00 94 1014.7
20260507063101 55 0.0 0.0 0.00 0.00 0.00 94 1014.5
20260507061556 55 0.0 0.0 0.00 0.00 0.00 94 1014.7
20260507060100 55 0.0 0.0 0.00 0.00 0.00 94 1014.6
20260507054556 55 0.0 0.0 0.00 0.00 0.00 94 1014.4
20260507053058 55 0.0 0.0 0.00 0.00 0.00 94 1014.3
20260507051556 55 0.0 0.0 0.00 0.00 0.00 94 1014.2
20260507050056 54 0.0 0.0 0.00 0.00 0.00 94 1014.1
20260507044559 0 0.0 0.0 0.00 0.00 0.00 1013.9
20260507043055 0 0.0 0.0 0.00 0.00 0.00 1013.7
20260507041556 0 0.0 0.0 0.00 0.00 0.00 1013.5
20260507040058 0 0.0 0.0 0.00 0.00 0.00 1013.5
20260507034559 0 0.0 0.0 0.00 0.00 0.00 1013.5
20260507033055 0 0.0 0.0 0.00 0.00 0.00 1013.3
20260507031557 0 0.0 0.0 0.00 0.00 0.00 1013.3
20260507030106 0 0.0 0.0 0.00 0.00 0.00 1013.2
20260507024617 0 0.0 0.0 0.00 0.00 0.00 1013.3
20260507023102 0 0.0 0.0 0.00 0.00 0.00 1013.2
20260507021616 0 0.0 0.0 0.00 0.00 0.00 1013.2
20260507020106 0 0.0 0.0 0.00 0.00 0.00 1013.2
20260507014614 0 0.0 0.0 0.00 0.00 0.00 1013.0
20260507013059 0 0.0 0.0 0.00 0.00 0.00 1012.9
20260507011604 0 0.0 0.0 0.00 0.00 0.00 1013.0
20260507010118 0 0.0 0.0 0.00 0.00 0.00 1013.0
20260507004553 0 0.0 0.0 0.00 0.00 0.00 1013.0
20260507003054 0 0.0 0.0 0.00 0.00 0.00 1013.2
20260507001606 0 0.0 0.0 0.00 0.00 0.00 1013.3
20260507000059 0 0.0 0.0 0.00 0.00 0.00 1013.4
20260506234600 0 0.0 0.0 0.00 0.00 0.00 1013.2
20260506233059 0 0.0 0.0 0.00 0.00 0.00 1013.1
20260506231555 0 0.0 0.0 0.00 0.00 0.00 1013.3
20260506230105 0 0.0 0.0 0.00 0.00 0.00 1013.2
20260506224558 0 0.0 0.0 0.00 0.00 0.00 1013.2
20260506223101 0 0.0 0.0 0.00 0.00 0.00 1013.2
20260506221610 0 0.0 0.0 0.00 0.00 0.00 1013.2
20260506220057 0 0.0 0.0 0.00 0.00 0.00 1013.3
20260506214559 0 0.0 0.0 0.00 0.00 0.00 1013.2
20260506213054 0 0.0 0.0 0.00 0.00 0.00 1013.4
20260506211554 0 0.0 0.0 0.00 0.00 0.00 1013.4
20260506210059 0 0.0 0.0 0.00 0.00 0.00 1013.4
20260506204555 0 0.0 0.0 0.00 0.00 0.00 1013.4
20260506203059 59 0.0 0.0 0.00 0.00 0.00 90 1013.0
20260506201617 59 0.0 0.0 0.00 0.00 0.00 90 1013.1
20260506200058 59 0.0 0.0 0.00 0.00 0.00 90 1013.1
20260506194559 59 0.0 0.0 0.00 0.00 0.00 89 1013.0
20260506193056 59 0.0 0.0 0.00 0.00 0.00 89 1012.9
20260506191558 59 0.0 0.0 0.00 0.00 0.00 88 1012.6
20260506190054 60 0.0 0.0 0.00 0.00 0.00 87 1012.5
20260506184601 60 0.0 0.0 0.00 0.00 0.00 86 1012.4
20260506183059 60 0.0 0.0 0.00 0.00 0.00 86 1012.2
20260506181555 61 0.0 0.0 0.00 0.00 0.00 85 1012.2
20260506180056 61 0.0 0.0 0.00 0.00 0.00 83 1012.4
20260506174558 61 0.0 0.0 0.00 0.00 0.00 83 1012.2
20260506173120 62 0.0 0.0 0.00 0.00 0.00 82 1012.2
20260506171559 62 0.0 0.0 0.00 0.00 0.00 80 1012.0
20260506170057 62 0.0 0.0 0.00 0.00 0.00 79 1011.9
20260506164555 63 0.0 0.0 0.00 0.00 0.00 80 1011.8
20260506163109 63 0.0 0.0 0.00 0.00 0.00 79 1011.9
20260506161600 64 0.0 0.0 0.00 0.00 0.00 78 1012.0
20260506160057 65 0.0 0.0 0.00 0.00 0.00 79 1012.1
20260506154602 65 0.0 0.0 0.00 0.00 0.00 77 1012.0
20260506153056 65 0.0 0.0 0.00 0.00 0.00 77 1012.0
20260506151555 65 0.0 0.0 0.00 0.00 0.00 79 1011.9
20260506150057 64 0.0 0.0 0.00 0.00 0.00 82 1012.0
20260506144559 64 0.0 0.0 0.00 0.00 0.00 84 1012.1
20260506143100 64 0.0 0.0 0.00 0.00 0.00 84 1012.1
20260506141557 64 0.0 0.0 0.00 0.00 0.00 82 1012.1
20260506134557 63 0.0 0.0 0.00 0.00 0.00 82 1012.2
20260506133101 64 0.0 0.0 0.00 0.00 0.00 77 1012.3
20260506131558 65 0.0 0.0 0.00 0.00 0.00 75 1012.4
20260506130057 66 0.0 0.0 0.00 0.00 0.00 71 1012.7
20260506124600 66 0.0 0.0 0.00 0.00 0.00 70 1012.5
20260506123058 67 0.0 0.0 0.00 0.00 0.00 68 1012.7
20260506121602 66 0.0 0.0 0.00 0.00 0.00 71 1012.5
20260506120110 66 0.0 0.0 0.00 0.00 0.00 68 1012.7
20260506114619 67 0.0 0.0 0.00 0.00 0.00 68 1012.2
20260506113058 67 0.0 0.0 0.00 0.00 0.00 66 1012.2
20260506111557 67 0.0 0.0 0.00 0.00 0.00 68 1012.4
20260506110113 65 0.0 0.0 0.00 0.00 0.00 71 1012.6
20260506104555 63 0.0 0.0 0.00 0.00 0.00 73 1012.6
20260506103055 63 0.0 0.0 0.00 0.00 0.00 70 1012.8
20260506101557 65 0.0 0.0 0.00 0.00 0.00 67 1012.7
20260506100054 66 0.0 0.0 0.00 0.00 0.00 63 1012.7
20260506094557 67 0.0 0.0 0.00 0.00 0.00 66 1012.6
20260506093113 67 0.0 0.0 0.00 0.00 0.00 66 1012.2
20260506091601 67 0.0 0.0 0.00 0.00 0.00 65 1012.4
20260506090121 65 0.0 0.0 0.00 0.00 0.00 70 1012.5
20260506084558 64 0.0 0.0 0.00 0.00 0.00 74 1012.2
20260506083101 63 0.0 0.0 0.00 0.00 0.00 79 1012.2
20260506081601 61 0.0 0.0 0.00 0.00 0.00 83 1012.2
20260506080111 60 0.0 0.0 0.00 0.00 0.00 84 1012.2
20260506073107 58 0.0 0.0 0.00 0.00 0.00 88 1012.1
20260506071557 58 0.0 0.0 0.00 0.00 0.00 88 1012.1